Terug naar catalogus

DIRECTV 15

ActiefCommunicatieGEO
NORAD 40663·PAYLOAD·🇺🇸 United States

Gelanceerd May 27, 2015 vanaf Guiana Space Centre

Loading…

TLE

VersSource: Space-Track

Epoch: Sep 14, 2026, 15:30 UTC

1 40663U 15026A   26257.64593199 -.00000110  00000-0  00000-0 0  9994
2 40663   0.0141 115.3087 0000766  27.8997 340.0851  1.00269965 41366

Volg DIRECTV 15 in realtime met AllMySat

Download on the App Store